�������l�o���
Date,Time,MP-1(��Sv/h),MP-2(��Sv/h),MP-3(��Sv/h),MP-4(��Sv/h),MP-5(��Sv/h),MP-6(��Sv/h),MP-7(��Sv/h),MP-8(��Sv/h),����,����(m/s),���J
2019/04/20,00:00,0.773,1.134,0.778,1.447,1.054,0.440,0.776,0.736,�k�k��,7.1,��
2019/04/20,00:10,0.773,1.130,0.780,1.443,1.054,0.439,0.778,0.734,�k,7.2,��
2019/04/20,00:20,0.772,1.131,0.778,1.441,1.054,0.438,0.777,0.735,�k,7.9,��
2019/04/20,00:30,0.772,1.132,0.779,1.445,1.055,0.439,0.777,0.735,�k,7.5,��
2019/04/20,00:40,0.772,1.132,0.777,1.444,1.053,0.439,0.777,0.735,�k,7.3,��
2019/04/20,00:50,0.772,1.132,0.778,1.444,1.057,0.438,0.778,0.733,�k,7.6,��
2019/04/20,01:00,0.773,1.134,0.780,1.443,1.055,0.438,0.778,0.734,�k,7.9,��
2019/04/20,01:10,0.772,1.131,0.778,1.444,1.055,0.437,0.778,0.733,�k,7.1,��
2019/04/20,01:20,0.769,1.132,0.777,1.443,1.054,0.437,0.778,0.733,�k�k��,7.4,��
2019/04/20,01:30,0.771,1.131,0.779,1.445,1.052,0.438,0.778,0.735,�k�k��,7.3,��
2019/04/20,01:40,0.772,1.132,0.778,1.445,1.053,0.438,0.775,0.734,�k�k��,6.4,��
2019/04/20,01:50,0.772,1.131,0.775,1.446,1.054,0.437,0.776,0.734,�k�k��,5.9,��
2019/04/20,02:00,0.773,1.134,0.778,1.445,1.056,0.437,0.775,0.736,�k,6.8,��
2019/04/20,02:10,0.771,1.133,0.780,1.445,1.054,0.438,0.776,0.735,�k,6.5,��
2019/04/20,02:20,0.770,1.132,0.776,1.442,1.053,0.437,0.778,0.734,�k,6.9,��
2019/04/20,02:30,0.769,1.132,0.776,1.442,1.054,0.438,0.778,0.733,�k�k��,5.2,��
2019/04/20,02:40,0.770,1.131,0.779,1.445,1.052,0.438,0.777,0.734,�k,6.1,��
2019/04/20,02:50,0.772,1.132,0.778,1.443,1.052,0.439,0.776,0.735,�k,6.6,��
2019/04/20,03:00,0.772,1.132,0.777,1.445,1.054,0.437,0.778,0.735,�k�k��,6.4,��
2019/04/20,03:10,0.769,1.131,0.777,1.442,1.054,0.438,0.777,0.733,�k,5.3,��
2019/04/20,03:20,0.771,1.131,0.777,1.441,1.052,0.438,0.775,0.733,�k,5.7,��
2019/04/20,03:30,0.770,1.132,0.776,1.443,1.054,0.438,0.776,0.735,�k�k��,5.6,��
2019/04/20,03:40,0.769,1.130,0.777,1.442,1.053,0.438,0.775,0.734,�k�k��,4.7,��
2019/04/20,03:50,0.769,1.130,0.777,1.442,1.053,0.437,0.778,0.733,�k�k��,4.9,��
2019/04/20,04:00,0.769,1.129,0.777,1.443,1.053,0.437,0.775,0.734,�k�k��,6.2,��
2019/04/20,04:10,0.769,1.131,0.776,1.441,1.053,0.436,0.777,0.732,�k�k��,5.4,��
2019/04/20,04:20,0.771,1.132,0.776,1.443,1.053,0.436,0.774,0.734,�k�k��,6.3,��
2019/04/20,04:30,0.769,1.130,0.775,1.441,1.052,0.437,0.775,0.733,�k�k��,6.3,��
2019/04/20,04:40,0.769,1.132,0.776,1.442,1.054,0.435,0.774,0.734,�k�k��,7.6,��
2019/04/20,04:50,0.769,1.132,0.777,1.445,1.051,0.435,0.777,0.733,�k�k��,7.1,��
2019/04/20,05:00,0.771,1.130,0.775,1.443,1.052,0.437,0.775,0.734,�k�k��,7.2,��
2019/04/20,05:10,0.770,1.131,0.776,1.445,1.052,0.436,0.775,0.734,�k�k��,6.9,��
2019/04/20,05:20,0.769,1.129,0.776,1.441,1.055,0.436,0.775,0.734,�k�k��,6.8,��
2019/04/20,05:30,0.767,1.131,0.777,1.443,1.053,0.436,0.773,0.735,�k�k��,6.4,��
2019/04/20,05:40,0.769,1.132,0.774,1.442,1.053,0.437,0.776,0.734,�k�k��,6.2,��
2019/04/20,05:50,0.770,1.130,0.773,1.441,1.052,0.437,0.775,0.733,�k�k��,5.9,��
2019/04/20,06:00,0.769,1.130,0.776,1.443,1.053,0.437,0.776,0.734,�k�k��,5.1,��
2019/04/20,06:10,0.770,1.131,0.776,1.442,1.052,0.438,0.775,0.733,�k��,4.3,��
2019/04/20,06:20,0.771,1.131,0.777,1.442,1.053,0.439,0.777,0.736,�k�k��,2.0,��
2019/04/20,06:30,0.769,1.133,0.777,1.441,1.053,0.438,0.776,0.735,�k��,2.6,��
2019/04/20,06:40,0.770,1.131,0.777,1.442,1.051,0.437,0.777,0.734,���k��,2.0,��
2019/04/20,06:50,0.769,1.134,0.778,1.443,1.053,0.438,0.776,0.734,���k��,1.7,��
2019/04/20,07:00,0.770,1.131,0.777,1.444,1.052,0.438,0.777,0.734,���k��,1.5,��
2019/04/20,07:10,0.770,1.133,0.777,1.441,1.053,0.439,0.776,0.734,�k��,2.5,��
2019/04/20,07:20,0.770,1.130,0.776,1.444,1.052,0.439,0.779,0.734,���k��,1.2,��
2019/04/20,07:30,0.770,1.133,0.776,1.443,1.056,0.437,0.776,0.735,�k�k��,1.5,��
2019/04/20,07:40,0.770,1.131,0.776,1.443,1.052,0.437,0.776,0.734,�k�k��,2.3,��
2019/04/20,07:50,0.771,1.132,0.776,1.444,1.052,0.437,0.779,0.734,�k,2.5,��
2019/04/20,08:00,0.770,1.129,0.776,1.443,1.054,0.437,0.778,0.735,�k�k��,2.0,��
2019/04/20,08:10,0.772,1.132,0.779,1.442,1.057,0.435,0.776,0.737,�k�k��,2.0,��
2019/04/20,08:20,0.773,1.130,0.777,1.444,1.055,0.436,0.778,0.735,�k�k��,3.4,��
2019/04/20,08:30,0.771,1.129,0.779,1.442,1.055,0.436,0.778,0.735,�k�k��,2.3,��
2019/04/20,08:40,0.771,1.130,0.778,1.444,1.054,0.436,0.776,0.735,�k��,2.3,��
2019/04/20,08:50,0.773,1.127,0.780,1.443,1.057,0.437,0.775,0.735,�k,2.6,��
2019/04/20,09:00,0.771,1.129,0.778,1.445,1.056,0.437,0.775,0.735,��,3.4,��
2019/04/20,09:10,0.773,1.128,0.777,1.444,1.056,0.436,0.775,0.733,��,3.9,��
2019/04/20,09:20,0.772,1.130,0.779,1.442,1.055,0.438,0.774,0.732,�k��,4.2,��
2019/04/20,09:30,0.772,1.129,0.779,1.443,1.054,0.438,0.775,0.732,���k��,4.7,��
2019/04/20,09:40,0.772,1.133,0.777,1.445,1.056,0.438,0.775,0.732,���k��,3.6,��
2019/04/20,09:50,0.772,1.132,0.778,1.445,1.056,0.439,0.777,0.731,�k��,3.0,��
2019/04/20,10:00,0.774,1.130,0.780,1.446,1.056,0.437,0.777,0.733,�k��,3.3,��
2019/04/20,10:10,0.774,1.130,0.778,1.444,1.055,0.438,0.775,0.731,�k��,3.0,��
2019/04/20,10:20,0.775,1.127,0.779,1.447,1.057,0.438,0.775,0.731,�k��,3.5,��
2019/04/20,10:30,0.773,1.129,0.779,1.445,1.056,0.436,0.776,0.732,��,3.6,��
2019/04/20,10:40,0.773,1.132,0.779,1.446,1.058,0.438,0.777,0.734,���쓌,4.1,��
2019/04/20,10:50,0.772,1.133,0.780,1.446,1.056,0.437,0.777,0.734,���k��,3.8,��
2019/04/20,11:00,0.774,1.132,0.779,1.445,1.055,0.437,0.776,0.733,�k��,3.8,��
2019/04/20,11:10,0.773,1.134,0.778,1.448,1.054,0.439,0.778,0.732,���k��,3.2,��
2019/04/20,11:20,0.773,1.130,0.778,1.448,1.056,0.438,0.777,0.732,��,2.9,��
2019/04/20,11:30,0.772,1.132,0.778,1.447,1.056,0.437,0.776,0.733,���쓌,3.6,��
2019/04/20,11:40,0.770,1.134,0.777,1.451,1.052,0.437,0.778,0.732,�쓌,4.5,��
2019/04/20,11:50,0.772,1.137,0.779,1.448,1.058,0.438,0.776,0.731,��쓌,3.5,��
2019/04/20,12:00,0.772,1.136,0.777,1.448,1.058,0.438,0.778,0.733,�쓌,4.4,��
2019/04/20,12:10,0.774,1.136,0.777,1.442,1.056,0.437,0.777,0.734,��쓌,5.7,��
2019/04/20,12:20,0.773,1.137,0.777,1.447,1.059,0.438,0.777,0.732,��쓌,5.7,��
2019/04/20,12:30,0.772,1.137,0.775,1.448,1.057,0.439,0.777,0.732,��쓌,4.8,��
2019/04/20,12:40,0.773,1.136,0.779,1.448,1.056,0.438,0.776,0.733,��쓌,7.1,��
2019/04/20,12:50,0.772,1.136,0.778,1.450,1.058,0.439,0.777,0.734,��쓌,6.9,��
2019/04/20,13:00,0.772,1.137,0.779,1.447,1.060,0.439,0.778,0.734,��쓌,5.1,��
2019/04/20,13:10,0.773,1.134,0.778,1.447,1.059,0.438,0.777,0.734,��쓌,5.7,��
2019/04/20,13:20,0.774,1.136,0.781,1.450,1.058,0.440,0.778,0.734,��쓌,4.9,��
2019/04/20,13:30,0.773,1.135,0.778,1.449,1.059,0.438,0.777,0.732,��쓌,6.4,��
2019/04/20,13:40,0.774,1.136,0.779,1.450,1.059,0.441,0.778,0.734,��쓌,6.2,��
2019/04/20,13:50,0.773,1.136,0.779,1.448,1.060,0.439,0.777,0.735,��쓌,7.7,��
2019/04/20,14:00,0.773,1.136,0.780,1.451,1.059,0.439,0.776,0.732,��쓌,8.3,��
2019/04/20,14:10,0.773,1.137,0.781,1.450,1.059,0.440,0.778,0.735,��쓌,8.1,��
2019/04/20,14:20,0.774,1.137,0.780,1.448,1.060,0.440,0.778,0.733,��쓌,7.4,��
2019/04/20,14:30,0.774,1.137,0.779,1.447,1.059,0.439,0.780,0.733,��쓌,7.7,��
2019/04/20,14:40,0.774,1.137,0.780,1.450,1.061,0.440,0.778,0.734,��쓌,8.5,��
2019/04/20,14:50,0.774,1.141,0.781,1.450,1.059,0.440,0.780,0.734,��쓌,8.8,��
2019/04/20,15:00,0.774,1.137,0.780,1.451,1.061,0.440,0.779,0.733,��쓌,8.4,��
2019/04/20,15:10,0.773,1.136,0.779,1.445,1.059,0.441,0.779,0.734,��쓌,7.7,��
2019/04/20,15:20,0.775,1.139,0.780,1.447,1.059,0.441,0.777,0.734,��쓌,9.6,��
2019/04/20,15:30,0.773,1.141,0.780,1.445,1.058,0.441,0.777,0.735,��쓌,10.2,��
2019/04/20,15:40,0.775,1.137,0.780,1.448,1.062,0.442,0.778,0.735,��,8.7,��
2019/04/20,15:50,0.775,1.139,0.780,1.446,1.060,0.441,0.778,0.734,��,7.9,��
2019/04/20,16:00,0.776,1.137,0.780,1.446,1.060,0.444,0.777,0.733,��쓌,8.3,��
2019/04/20,16:10,0.775,1.138,0.780,1.445,1.058,0.443,0.778,0.734,��쓌,9.0,��
2019/04/20,16:20,0.775,1.141,0.781,1.445,1.062,0.443,0.778,0.735,��쓌,8.5,��
2019/04/20,16:30,0.774,1.140,0.781,1.445,1.060,0.442,0.777,0.732,��,9.1,��
2019/04/20,16:40,0.774,1.142,0.780,1.447,1.060,0.443,0.778,0.735,��쓌,8.3,��
2019/04/20,16:50,0.774,1.139,0.781,1.446,1.061,0.443,0.779,0.734,��쓌,10.3,��
2019/04/20,17:00,0.774,1.141,0.781,1.450,1.060,0.441,0.777,0.737,��,8.9,��
2019/04/20,17:10,0.775,1.143,0.781,1.448,1.064,0.445,0.777,0.736,��쓌,9.9,��
2019/04/20,17:20,0.773,1.142,0.780,1.448,1.060,0.443,0.778,0.736,��쓌,10.5,��
2019/04/20,17:30,0.775,1.140,0.780,1.449,1.061,0.443,0.778,0.736,��쓌,9.9,��
2019/04/20,17:40,0.777,1.139,0.781,1.448,1.060,0.444,0.778,0.736,��쓌,10.5,��
2019/04/20,17:50,0.775,1.141,0.782,1.447,1.059,0.444,0.777,0.736,��,10.6,��
2019/04/20,18:00,0.778,1.141,0.783,1.447,1.060,0.442,0.775,0.736,��쓌,10.2,��
2019/04/20,18:10,0.776,1.140,0.784,1.445,1.062,0.442,0.779,0.736,��,9.3,��
2019/04/20,18:20,0.777,1.141,0.784,1.451,1.061,0.442,0.777,0.736,��,7.3,��
2019/04/20,18:30,0.776,1.139,0.783,1.452,1.062,0.443,0.777,0.736,��,8.8,��
2019/04/20,18:40,0.777,1.142,0.782,1.451,1.060,0.444,0.779,0.736,��,9.1,��
2019/04/20,18:50,0.778,1.143,0.785,1.450,1.062,0.442,0.779,0.736,��,8.6,��
2019/04/20,19:00,0.777,1.142,0.782,1.451,1.060,0.443,0.778,0.733,��,8.5,��
2019/04/20,19:10,0.774,1.141,0.781,1.449,1.062,0.442,0.780,0.735,��,7.5,��
2019/04/20,19:20,0.776,1.139,0.780,1.449,1.063,0.441,0.780,0.735,��,7.7,��
2019/04/20,19:30,0.775,1.141,0.782,1.450,1.063,0.444,0.778,0.736,��,7.7,��
2019/04/20,19:40,0.776,1.140,0.784,1.450,1.061,0.442,0.780,0.735,��,7.9,��
2019/04/20,19:50,0.777,1.139,0.783,1.450,1.061,0.443,0.779,0.736,��,8.0,��
2019/04/20,20:00,0.775,1.141,0.781,1.449,1.061,0.441,0.781,0.736,��,6.8,��
2019/04/20,20:10,0.776,1.140,0.783,1.450,1.060,0.441,0.779,0.736,��,6.5,��
2019/04/20,20:20,0.777,1.138,0.782,1.448,1.058,0.442,0.779,0.737,��,6.0,��
2019/04/20,20:30,0.777,1.139,0.782,1.449,1.062,0.441,0.778,0.735,��,6.0,��
2019/04/20,20:40,0.776,1.139,0.783,1.450,1.060,0.441,0.780,0.735,��,6.0,��
2019/04/20,20:50,0.776,1.142,0.783,1.451,1.061,0.443,0.781,0.734,��,6.1,��
2019/04/20,21:00,0.776,1.140,0.784,1.449,1.060,0.441,0.779,0.736,��,5.9,��
2019/04/20,21:10,0.775,1.139,0.782,1.450,1.062,0.443,0.777,0.738,��,6.3,��
2019/04/20,21:20,0.775,1.140,0.785,1.450,1.061,0.440,0.778,0.736,��,5.9,��
2019/04/20,21:30,0.777,1.140,0.783,1.450,1.062,0.443,0.779,0.736,��,5.8,��
2019/04/20,21:40,0.775,1.138,0.784,1.450,1.061,0.441,0.778,0.736,��,5.8,��
2019/04/20,21:50,0.775,1.137,0.781,1.451,1.062,0.440,0.778,0.736,��쐼,5.8,��
2019/04/20,22:00,0.773,1.141,0.782,1.451,1.061,0.441,0.779,0.736,�쐼,5.3,��
2019/04/20,22:10,0.777,1.140,0.783,1.450,1.062,0.442,0.779,0.736,�쐼,3.7,��
2019/04/20,22:20,0.776,1.139,0.782,1.453,1.060,0.441,0.776,0.735,�쐼,2.6,��
2019/04/20,22:30,0.776,1.140,0.783,1.447,1.062,0.442,0.778,0.737,���쐼,2.2,��
2019/04/20,22:40,0.777,1.138,0.781,1.451,1.059,0.442,0.779,0.735,���k��,3.0,��
2019/04/20,22:50,0.778,1.141,0.780,1.451,1.061,0.441,0.779,0.736,�k��,2.0,��
2019/04/20,23:00,0.777,1.140,0.783,1.450,1.063,0.442,0.779,0.735,�k��,1.7,��
2019/04/20,23:10,0.778,1.141,0.782,1.451,1.060,0.442,0.779,0.736,�k�k��,0.6,��
2019/04/20,23:20,0.777,1.139,0.784,1.448,1.061,0.441,0.778,0.736,-,CALM,��
2019/04/20,23:30,0.777,1.138,0.783,1.448,1.063,0.443,0.779,0.736,��쐼,1.2,��
2019/04/20,23:40,0.778,1.138,0.782,1.454,1.063,0.444,0.777,0.735,��,0.6,��
2019/04/20,23:50,0.776,1.139,0.784,1.448,1.063,0.444,0.780,0.738,��쓌,1.2,��
